TimeCST,TemperatureF,Dew PointF,Humidity,Sea Level PressureIn,VisibilityMPH,Wind Direction,Wind SpeedMPH,Gust SpeedMPH,PrecipitationIn,Events,Conditions,WindDirDegrees,DateUTC
12:15 AM,13.3,11.1,91,30.35,7.0,SW,3.5,-,N/A,,Clear,220,2013-01-07 06:15:00
12:35 AM,14.5,12.9,93,30.35,7.0,SSW,4.6,-,N/A,,Clear,210,2013-01-07 06:35:00
12:55 AM,13.1,11.3,93,30.35,7.0,SW,4.6,-,N/A,,Clear,220,2013-01-07 06:55:00
1:15 AM,13.1,11.3,93,30.36,7.0,South,4.6,-,N/A,,Clear,190,2013-01-07 07:15:00
1:35 AM,13.6,12.0,93,30.35,7.0,South,4.6,-,N/A,,Clear,190,2013-01-07 07:35:00
1:55 AM,14.9,13.8,95,30.35,7.0,South,4.6,-,N/A,,Clear,180,2013-01-07 07:55:00
2:15 AM,14.0,12.0,92,30.36,7.0,South,4.6,-,N/A,,Clear,180,2013-01-07 08:15:00
2:35 AM,12.6,10.4,91,30.36,7.0,South,5.8,-,N/A,,Clear,190,2013-01-07 08:35:00
2:55 AM,12.0,9.9,91,30.36,7.0,South,4.6,-,N/A,,Clear,180,2013-01-07 08:55:00
3:15 AM,12.9,10.9,92,30.37,7.0,South,4.6,-,N/A,,Clear,180,2013-01-07 09:15:00
3:35 AM,13.8,11.8,92,30.37,7.0,South,5.8,-,N/A,,Clear,180,2013-01-07 09:35:00
3:55 AM,14.5,12.6,92,30.37,7.0,South,5.8,-,N/A,,Clear,180,2013-01-07 09:55:00
4:15 AM,14.0,12.2,93,30.36,7.0,South,5.8,-,N/A,,Clear,180,2013-01-07 10:15:00
4:35 AM,13.6,11.5,91,30.37,7.0,South,5.8,-,N/A,,Clear,180,2013-01-07 10:35:00
4:55 AM,13.6,11.7,92,30.37,7.0,South,5.8,-,N/A,,Clear,180,2013-01-07 10:55:00
5:15 AM,14.0,12.0,92,30.37,7.0,South,8.1,-,N/A,,Clear,180,2013-01-07 11:15:00
5:35 AM,13.8,11.5,90,30.37,7.0,South,6.9,-,N/A,,Clear,180,2013-01-07 11:35:00
5:55 AM,14.0,12.0,92,30.37,10.0,South,5.8,-,N/A,,Clear,180,2013-01-07 11:55:00
6:15 AM,14.0,12.2,93,30.37,10.0,South,5.8,-,N/A,,Clear,180,2013-01-07 12:15:00
6:35 AM,14.5,12.2,90,30.37,10.0,South,5.8,-,N/A,,Clear,180,2013-01-07 12:35:00
6:55 AM,15.3,13.1,91,30.37,10.0,South,5.8,-,N/A,,Clear,180,2013-01-07 12:55:00
7:15 AM,15.6,13.1,90,30.37,7.0,South,5.8,-,N/A,,Clear,180,2013-01-07 13:15:00
7:35 AM,16.7,14.4,91,30.36,7.0,South,8.1,-,N/A,,Clear,170,2013-01-07 13:35:00
7:55 AM,16.7,14.4,91,30.36,7.0,South,8.1,-,N/A,,Clear,180,2013-01-07 13:55:00
8:15 AM,18.3,15.8,90,30.36,7.0,South,9.2,-,N/A,,Clear,170,2013-01-07 14:15:00
8:35 AM,19.8,17.1,89,30.36,7.0,South,9.2,-,N/A,,Clear,180,2013-01-07 14:35:00
8:55 AM,21.9,19.4,90,30.36,7.0,South,10.4,-,N/A,,Clear,180,2013-01-07 14:55:00
9:15 AM,23.9,21.2,89,30.36,7.0,South,16.1,19.6,N/A,,Clear,180,2013-01-07 15:15:00
9:35 AM,25.3,22.3,88,30.36,7.0,South,17.3,-,N/A,,Clear,180,2013-01-07 15:35:00
9:55 AM,26.4,22.8,86,30.36,7.0,South,15.0,-,N/A,,Clear,190,2013-01-07 15:55:00
10:15 AM,27.7,23.7,85,30.35,7.0,South,15.0,-,N/A,,Clear,180,2013-01-07 16:15:00
10:35 AM,29.5,23.5,79,30.34,10.0,South,18.4,23.0,N/A,,Clear,190,2013-01-07 16:35:00
10:55 AM,30.2,23.7,77,30.33,10.0,South,16.1,-,N/A,,Clear,190,2013-01-07 16:55:00
11:15 AM,31.1,24.3,76,30.31,10.0,South,17.3,-,N/A,,Clear,180,2013-01-07 17:15:00
11:35 AM,32.0,25.2,76,30.29,10.0,South,15.0,23.0,N/A,,Clear,190,2013-01-07 17:35:00
11:55 AM,32.4,24.8,74,30.27,10.0,South,19.6,-,N/A,,Clear,180,2013-01-07 17:55:00
12:15 PM,33.4,25.7,73,30.26,10.0,South,17.3,-,N/A,,Clear,190,2013-01-07 18:15:00
12:35 PM,34.3,26.1,72,30.25,10.0,South,16.1,21.9,N/A,,Clear,180,2013-01-07 18:35:00
12:55 PM,33.8,26.6,75,30.25,10.0,South,16.1,19.6,N/A,,Clear,190,2013-01-07 18:55:00
1:15 PM,34.9,25.9,70,30.24,10.0,South,20.7,27.6,N/A,,Clear,190,2013-01-07 19:15:00
1:35 PM,35.6,25.9,68,30.22,10.0,South,21.9,28.8,N/A,,Clear,180,2013-01-07 19:35:00
1:55 PM,35.6,25.3,66,30.20,10.0,South,20.7,26.5,N/A,,Clear,190,2013-01-07 19:55:00
2:15 PM,36.0,25.5,66,30.21,10.0,South,17.3,26.5,N/A,,Clear,180,2013-01-07 20:15:00
2:35 PM,35.6,24.8,65,30.21,10.0,South,17.3,24.2,N/A,,Clear,190,2013-01-07 20:35:00
2:55 PM,36.0,25.0,64,30.21,10.0,South,18.4,23.0,N/A,,Clear,190,2013-01-07 20:55:00
3:15 PM,35.6,25.3,66,30.21,10.0,South,13.8,23.0,N/A,,Clear,190,2013-01-07 21:15:00
3:35 PM,35.2,25.9,69,30.21,10.0,South,11.5,17.3,N/A,,Clear,190,2013-01-07 21:35:00
3:55 PM,34.0,26.1,73,30.20,10.0,South,10.4,-,N/A,,Clear,180,2013-01-07 21:55:00
4:15 PM,33.8,26.4,74,30.19,10.0,South,12.7,-,N/A,,Clear,180,2013-01-07 22:15:00
4:35 PM,33.3,25.7,74,30.18,10.0,South,12.7,-,N/A,,Clear,170,2013-01-07 22:35:00
4:55 PM,33.8,26.6,75,30.17,10.0,South,15.0,-,N/A,,Clear,170,2013-01-07 22:55:00
5:15 PM,32.0,26.1,79,30.17,10.0,South,11.5,-,N/A,,Clear,170,2013-01-07 23:15:00
5:35 PM,31.5,26.8,83,30.17,10.0,South,11.5,-,N/A,,Clear,170,2013-01-07 23:35:00
5:55 PM,31.1,26.6,83,30.16,10.0,South,15.0,18.4,N/A,,Clear,170,2013-01-07 23:55:00
6:15 PM,30.9,26.4,83,30.16,10.0,South,15.0,20.7,N/A,,Clear,170,2013-01-08 00:15:00
6:35 PM,30.2,26.1,85,30.17,10.0,South,13.8,-,N/A,,Clear,190,2013-01-08 00:35:00
6:55 PM,29.8,25.7,85,30.16,10.0,South,13.8,-,N/A,,Clear,170,2013-01-08 00:55:00
7:15 PM,29.5,25.7,86,30.16,10.0,South,13.8,-,N/A,,Clear,180,2013-01-08 01:15:00
7:35 PM,29.3,25.3,85,30.15,10.0,South,15.0,18.4,N/A,,Clear,170,2013-01-08 01:35:00
7:55 PM,29.3,25.2,85,30.14,10.0,South,16.1,-,N/A,,Clear,180,2013-01-08 01:55:00
8:15 PM,29.3,25.0,84,30.14,10.0,South,16.1,-,N/A,,Clear,180,2013-01-08 02:15:00
8:35 PM,29.1,24.8,84,30.14,10.0,South,16.1,-,N/A,,Clear,180,2013-01-08 02:35:00
8:55 PM,29.1,24.6,83,30.14,10.0,South,16.1,-,N/A,,Clear,190,2013-01-08 02:55:00
9:15 PM,29.1,24.6,83,30.15,10.0,South,16.1,-,N/A,,Clear,190,2013-01-08 03:15:00
9:35 PM,28.8,24.6,84,30.15,10.0,South,13.8,21.9,N/A,,Clear,190,2013-01-08 03:35:00
9:55 PM,28.8,24.6,84,30.15,10.0,South,13.8,-,N/A,,Clear,190,2013-01-08 03:55:00
10:15 PM,28.4,24.6,86,30.15,10.0,South,12.7,-,N/A,,Clear,190,2013-01-08 04:15:00
10:35 PM,28.4,24.6,86,30.14,10.0,South,12.7,-,N/A,,Clear,180,2013-01-08 04:35:00
10:55 PM,28.0,24.6,87,30.14,10.0,South,10.4,-,N/A,,Clear,180,2013-01-08 04:55:00
11:15 PM,28.4,24.6,86,30.14,10.0,South,11.5,-,N/A,,Clear,190,2013-01-08 05:15:00
11:35 PM,28.4,24.4,85,30.14,10.0,South,12.7,-,N/A,,Clear,190,2013-01-08 05:35:00
11:55 PM,28.0,24.3,86,30.15,10.0,South,9.2,-,N/A,,Clear,190,2013-01-08 05:55:00